Hourly Data Report for February 24, 2017

All times are specified in Local Standard Time (LST). Add 1 hour to adjust for Daylight Saving Time where and when it is observed.

TORONTO INTL A
ONTARIO

43°40'36.000" N
79°37'50.000" W
173.40 m
6158731
71624
YYZ

Download Data

Hourly Data (February 2017)
Hourly Data Report for February 24, 2017
TIME Temp Definition
°C
Dew Point Definition
°C
Rel Hum Definition
%
Wind Dir Definition
10's deg

Wind Spd Definition
km/h
Visibility Definition
km
Stn Press Definition
kPa
Hmdx Definition


Wind Chill Definition


Weather Definition


00:00 4.7 2.2 84 2 10 24.1 99.13     LegendNANA
01:00 4.1 1.5 83 1 20 24.1 99.15     Mostly Cloudy
02:00 3.8 1.0 82 6 9 24.1 99.20     LegendNANA
03:00 3.7 1.3 84 4 14 24.1 99.09     LegendNANA
04:00 3.6 1.5 86 4 13 24.1 99.06     Mostly Cloudy
05:00 4.2 1.7 84 7 13 24.1 98.97     LegendNANA
06:00 4.3 2.0 85 9 15 24.1 98.92     Rain
07:00 4.7 2.6 86 11 13 24.1 98.84     Cloudy
08:00 4.2 3.2 93 10 24 9.7 98.76     Rain,Fog
09:00 4.0 3.1 94 10 22 6.4 98.80     Rain,Fog
10:00 3.7 3.0 95 7 19 12.9 98.73     Cloudy
11:00 3.7 3.0 95 8 15 16.1 98.66     LegendNANA
12:00 3.7 3.1 96 8 17 16.1 98.60     LegendNANA
13:00 4.6 3.9 95 10 13 9.7 98.50     Fog
14:00 4.8 3.9 94 10 15 9.7 98.42     Fog
15:00 4.8 3.9 94 7 8 9.7 98.48     Fog
16:00 5.0 4.0 93 10 13 9.7 98.44     Fog
17:00 4.8 4.1 95 11 12 6.4 98.31     Fog
18:00 5.0 4.3 95 10 17 6.4 98.38     Fog
19:00 4.7 4.0 95 16 8 4.8 98.47     Thunderstorms,Rain Showers,Fog
20:00 4.3 3.7 96 13 12 3.2 98.17     Fog
21:00 3.6 3.2 97 12 10 3.2 98.16     Fog
22:00 3.4 3.0 97 11 13 0.8 98.10     Fog
23:00 3.2 2.8 97 12 10 0.8 98.07     Fog

Notes on Data Quality.

Legend

  • E = Estimated
  • M = Missing
  • NA = Not Available
Date modified: